This is the latest recevied weather packets stored in our database for station/object KK7MLS-13. If no packets are shown the sender has not sent any weather packets the latest 10 day(s).
| Time | Temp. | Humidity | Pressure | Rain* | Wind** | Luminosity | Snow |
|---|---|---|---|---|---|---|---|
| 1777161056 | 23.89° C | 22% | 1008.5 hPa | 0 mm | - | 371 W/m² | - |
| 1777160753 | 24.44° C | 22% | 1008.3 hPa | 0 mm | - | 383 W/m² | - |
| 1777160452 | 25° C | 20% | 1008.4 hPa | 0 mm | - | 398 W/m² | - |
| 1777160149 | 24.44° C | 21% | 1008.5 hPa | 0 mm | - | 412 W/m² | - |
| 1777159845 | 23.89° C | 24% | 1008.5 hPa | 0 mm | - | 426 W/m² | - |
| 1777159541 | 23.89° C | 22% | 1008.6 hPa | 0 mm | - | 439 W/m² | - |
| 1777159238 | 24.44° C | 23% | 1008.5 hPa | 0 mm | - | 453 W/m² | - |
| 1777158935 | 23.89° C | 21% | 1008.9 hPa | 0 mm | - | 466 W/m² | - |
| 1777158633 | 23.89° C | 20% | 1009 hPa | 0 mm | - | 479 W/m² | - |
| 1777158329 | 23.89° C | 20% | 1008.7 hPa | 0 mm | - | 492 W/m² | - |
| 1777158025 | 22.78° C | 22% | 1009 hPa | 0 mm | - | 504 W/m² | - |
| 1777157721 | 23.89° C | 19% | 1009 hPa | 0 mm | - | 512 W/m² | - |
| 1777157417 | 24.44° C | 17% | 1008.9 hPa | 0 mm | - | 529 W/m² | - |
| 1777157114 | 23.89° C | 19% | 1009.1 hPa | 0 mm | - | 540 W/m² | - |
| 1777156809 | 23.89° C | 21% | 1009.1 hPa | 0 mm | - | 552 W/m² | - |
| 1777156503 | 23.89° C | 25% | 1009.2 hPa | 0 mm | - | 560 W/m² | - |
| 1777156201 | 24.44° C | 18% | 1009.2 hPa | 0 mm | - | 573 W/m² | - |
| 1777155896 | 24.44° C | 19% | 1009.5 hPa | 0 mm | - | 582 W/m² | - |
| 1777155592 | 24.44° C | 19% | 1009.4 hPa | 0 mm | - | 592 W/m² | - |
| 1777155289 | 24.44° C | 19% | 1009.6 hPa | 0 mm | - | 602 W/m² | - |
| 1777154986 | 23.33° C | 22% | 1009.6 hPa | 0 mm | - | 611 W/m² | - |
| 1777154683 | 22.78° C | 18% | 1009.6 hPa | 0 mm | - | 620 W/m² | - |
| 1777154380 | 22.78° C | 20% | 1009.6 hPa | 0 mm | - | 630 W/m² | - |
| 1777154075 | 23.33° C | 21% | 1009.8 hPa | 0 mm | - | 639 W/m² | - |
| 1777153771 | 22.78° C | 26% | 1009.6 hPa | 0 mm | - | 646 W/m² | - |
* Rain latest hour (hover to see other rain measurements)
** Current wind speed in m/s (hover to see current wind gust speed)